Springfield, OH

1:41 AM EDT on July 25, 2017 (GMT -0400)
Springfield-Beckley Municipal

Weather History for KSGH - May, 2013

Change the Weather History Date:

Friday, May 24, 2013

  Actual Average (KFFO) Record (KFFO)
Temperature  
Mean Temperature 52 °F -  
Max Temperature 61 °F 70 °F 86 °F (2000)
Min Temperature 43 °F 50 °F 42 °F (1997)
Degree Days  
Heating Degree Days 13    
Growing Degree Days 2 (Base 50)    
Moisture  
Dew Point 37 °F    
Average Humidity 62    
Maximum Humidity 93    
Minimum Humidity 34    
Precipitation  
Precipitation 0.00 in - - ()
Sea Level Pressure  
Sea Level Pressure 30.26 in    
Wind  
Wind Speed 13 mph (North)    
Max Wind Speed 17 mph    
Max Gust Speed 21 mph    
Visibility 9 miles    
Events      
Averages and records for this station are not official NWS values.
T = Trace of Precipitation, MM = Missing Value Source: NWS Daily Summary

Daily Weather History Graph

Daily Weather History Graph

Search for Another Location

Airport or City:

Trip Planner

Search our weather history database for the weather conditions in past years. The results will help you decide how hot, cold, wet, or windy it might be!

Date:

Astronomy

May. 24, 2013 Rise Set
Actual Time 6:13 AM EDT 8:51 PM EDT
Civil Twilight 5:41 AM EDT 9:23 PM EDT
Nautical Twilight 5:02 AM EDT 10:02 PM EDT
Astronomical Twilight 4:18 AM EDT 10:46 PM EDT
Moon 8:32 PM EDT (5/24) 5:44 AM EDT (5/24)
Length of Visible Light 15h 41m
Length of Day
14h 38m
Full, 100% of the Moon is Illuminated
May 24
Full
May 25
Full
May 31
Last Quarter
Jun 8
New
Jun 16
First Quarter

Hourly Weather History & Observations

Time (EDT) Temp. Windchill Dew Point Humidity Pressure Visibility Wind Dir Wind Speed Gust Speed Precip Events Conditions
12:36 AM 46.4 °F 40.1 °F 42.8 °F 87% 30.12 in 7.0 mi North 15.0 mph - N/A   Overcast
12:56 AM 46.9 °F - 43.0 °F 86% 30.12 in 8.0 mi North 12.7 mph - N/A   Overcast
1:13 AM 46.4 °F 39.5 °F 44.6 °F 93% 30.13 in 8.0 mi North 17.3 mph - N/A   Overcast
1:56 AM 45.9 °F 39.1 °F 41.9 °F 86% 30.15 in 8.0 mi North 16.1 mph - N/A   Overcast
2:39 AM 46.4 °F 40.1 °F 39.2 °F 76% 30.16 in 8.0 mi North 15.0 mph - N/A   Overcast
2:56 AM 45.9 °F 39.7 °F 38.8 °F 76% 30.17 in 10.0 mi North 13.8 mph - N/A   Overcast
3:56 AM 45.0 °F 40.1 °F 37.9 °F 76% 30.18 in 10.0 mi North 9.2 mph - N/A   Overcast
4:56 AM 43.9 °F 39.3 °F 36.0 °F 74% 30.20 in 10.0 mi North 8.1 mph - N/A   Mostly Cloudy
5:56 AM 43.9 °F 39.3 °F 36.9 °F 76% 30.22 in 10.0 mi North 8.1 mph - N/A   Overcast
6:56 AM 43.9 °F 38.3 °F 36.0 °F 74% 30.24 in 9.0 mi North 10.4 mph - N/A   Clear
7:56 AM 45.9 °F 40.8 °F 36.9 °F 71% 30.25 in 9.0 mi North 10.4 mph - N/A   Scattered Clouds
8:56 AM 46.9 °F - 37.9 °F 71% 30.28 in 9.0 mi North 12.7 mph - N/A   Mostly Cloudy
9:29 AM 50.0 °F - 37.4 °F 62% 30.29 in 8.0 mi North 16.1 mph - N/A   Overcast
9:56 AM 50.9 °F - 37.9 °F 61% 30.31 in 8.0 mi North 13.8 mph - N/A   Mostly Cloudy
10:09 AM 53.6 °F - 39.2 °F 58% 30.30 in 8.0 mi North 13.8 mph - N/A   Scattered Clouds
10:56 AM 52.9 °F - 36.9 °F 55% 30.32 in 8.0 mi NW 16.1 mph - N/A   Mostly Cloudy
11:56 AM 52.9 °F - 36.0 °F 53% 30.33 in 8.0 mi NW 11.5 mph - N/A   Mostly Cloudy
12:56 PM 54.9 °F - 36.9 °F 51% 30.33 in 9.0 mi NNW 15.0 mph - N/A   Partly Cloudy
1:56 PM 56.8 °F - 36.9 °F 47% 30.33 in 10.0 mi NW 12.7 mph - N/A   Clear
2:56 PM 59.0 °F - 36.0 °F 42% 30.32 in 9.0 mi NNW 15.0 mph 20.7 mph N/A   Clear
3:56 PM 61.0 °F - 36.0 °F 39% 30.32 in 9.0 mi North 13.8 mph 20.7 mph N/A   Clear
4:56 PM 61.9 °F - 32.9 °F 34% 30.31 in 10.0 mi NW 12.7 mph - N/A   Clear
5:56 PM 61.9 °F - 32.9 °F 34% 30.30 in 8.0 mi NNW 13.8 mph 20.7 mph N/A   Clear
6:56 PM 61.9 °F - 32.9 °F 34% 30.29 in 9.0 mi NNW 10.4 mph - N/A   Clear
7:56 PM 59.9 °F - 32.9 °F 36% 30.29 in 9.0 mi North 9.2 mph - N/A   Clear
8:56 PM 54.9 °F - 34.0 °F 45% 30.28 in 9.0 mi North 4.6 mph - N/A   Clear
9:56 PM 50.9 °F - 34.9 °F 54% 30.30 in 10.0 mi Calm Calm - N/A   Clear
10:56 PM 48.9 °F - 37.9 °F 66% 30.33 in 9.0 mi ENE 4.6 mph - N/A   Clear
11:56 PM 46.9 °F - 38.8 °F 73% 30.34 in 9.0 mi NE 4.6 mph - N/A   Clear